Year,Month,Day,Hour,Minute,Value (Times are PST for temperature in C)
2016,06,06,00,00,19.40
2016,06,06,00,01,19.40
2016,06,06,00,02,19.30
2016,06,06,00,03,19.30
2016,06,06,00,04,19.30
2016,06,06,00,05,19.30
2016,06,06,00,06,19.30
2016,06,06,00,07,19.20
2016,06,06,00,08,19.20
2016,06,06,00,09,19.20
2016,06,06,00,10,19.20
2016,06,06,00,11,19.20
2016,06,06,00,12,19.20
2016,06,06,00,13,19.20
2016,06,06,00,14,19.20
2016,06,06,00,15,19.10
2016,06,06,00,16,19.10
2016,06,06,00,17,19.10
2016,06,06,00,18,19.10
2016,06,06,00,19,19.10
2016,06,06,00,20,19.10
2016,06,06,00,21,19.00
2016,06,06,00,22,19.00
2016,06,06,00,23,18.90
2016,06,06,00,24,18.90
2016,06,06,00,25,18.80
2016,06,06,00,26,18.70
2016,06,06,00,27,18.70
2016,06,06,00,28,18.60
2016,06,06,00,29,18.60
2016,06,06,00,30,18.60
2016,06,06,00,31,18.50
2016,06,06,00,32,18.50
2016,06,06,00,33,18.40
2016,06,06,00,34,18.40
2016,06,06,00,35,18.40
2016,06,06,00,36,18.30
2016,06,06,00,37,18.30
2016,06,06,00,38,18.20
2016,06,06,00,39,18.20
2016,06,06,00,40,18.20
2016,06,06,00,41,18.20
2016,06,06,00,42,18.20
2016,06,06,00,43,18.10
2016,06,06,00,44,18.10
2016,06,06,00,45,18.10
2016,06,06,00,46,18.10
2016,06,06,00,47,18.00
2016,06,06,00,48,18.00
2016,06,06,00,49,18.00
2016,06,06,00,50,17.90
2016,06,06,00,51,17.90
2016,06,06,00,52,17.90
2016,06,06,00,53,17.80
2016,06,06,00,54,17.80
2016,06,06,00,55,17.80
2016,06,06,00,56,17.80
2016,06,06,00,57,17.80
2016,06,06,00,58,17.80
2016,06,06,00,59,17.70
2016,06,06,01,00,17.70
2016,06,06,01,01,17.70
2016,06,06,01,02,17.70
2016,06,06,01,03,17.70
2016,06,06,01,04,17.60
2016,06,06,01,05,17.60
2016,06,06,01,06,17.60
2016,06,06,01,07,17.60
2016,06,06,01,08,17.50
2016,06,06,01,09,17.50
2016,06,06,01,10,17.40
2016,06,06,01,11,17.40
2016,06,06,01,12,17.40
2016,06,06,01,13,17.40
2016,06,06,01,14,17.40
2016,06,06,01,15,17.40
2016,06,06,01,16,17.40
2016,06,06,01,17,17.40
2016,06,06,01,18,17.40
2016,06,06,01,19,17.40
2016,06,06,01,20,17.30
2016,06,06,01,21,17.30
2016,06,06,01,22,17.30
2016,06,06,01,23,17.30
2016,06,06,01,24,17.20
2016,06,06,01,25,17.20
2016,06,06,01,26,17.20
2016,06,06,01,27,17.20
2016,06,06,01,28,17.20
2016,06,06,01,29,17.10
2016,06,06,01,30,17.10
2016,06,06,01,31,17.10
2016,06,06,01,32,17.10
2016,06,06,01,33,17.10
2016,06,06,01,34,17.10
2016,06,06,01,35,17.10
2016,06,06,01,36,17.10
2016,06,06,01,37,17.10
2016,06,06,01,38,17.10
2016,06,06,01,39,17.10
2016,06,06,01,40,17.00
2016,06,06,01,41,17.00
2016,06,06,01,42,17.00
2016,06,06,01,43,16.90
2016,06,06,01,44,16.90
2016,06,06,01,45,16.90
2016,06,06,01,46,16.90
2016,06,06,01,47,16.90
2016,06,06,01,48,16.80
2016,06,06,01,49,16.80
2016,06,06,01,50,16.80
2016,06,06,01,51,16.80
2016,06,06,01,52,16.80
2016,06,06,01,53,16.80
2016,06,06,01,54,16.80
2016,06,06,01,55,16.80
2016,06,06,01,56,16.80
2016,06,06,01,57,16.80
2016,06,06,01,58,16.80
2016,06,06,01,59,16.80
2016,06,06,02,00,16.70
2016,06,06,02,01,16.70
2016,06,06,02,02,16.70
2016,06,06,02,03,16.70
2016,06,06,02,04,16.70
2016,06,06,02,05,16.60
2016,06,06,02,06,16.60
2016,06,06,02,07,16.60
2016,06,06,02,08,16.60
2016,06,06,02,09,16.50
2016,06,06,02,10,16.50
2016,06,06,02,11,16.40
2016,06,06,02,12,16.40
2016,06,06,02,13,16.40
2016,06,06,02,14,16.30
2016,06,06,02,15,16.30
2016,06,06,02,16,16.30
2016,06,06,02,17,16.20
2016,06,06,02,18,16.20
2016,06,06,02,19,16.10
2016,06,06,02,20,16.10
2016,06,06,02,21,16.00
2016,06,06,02,22,16.00
2016,06,06,02,23,15.90
2016,06,06,02,24,15.90
2016,06,06,02,25,15.90
2016,06,06,02,26,15.90
2016,06,06,02,27,15.90
2016,06,06,02,28,15.90
2016,06,06,02,29,15.90
2016,06,06,02,30,15.90
2016,06,06,02,31,15.90
2016,06,06,02,32,15.80
2016,06,06,02,33,15.80
2016,06,06,02,34,15.80
2016,06,06,02,35,15.80
2016,06,06,02,36,15.80
2016,06,06,02,37,15.80
2016,06,06,02,38,15.70
2016,06,06,02,39,15.70
2016,06,06,02,40,15.70
2016,06,06,02,41,15.70
2016,06,06,02,42,15.70
2016,06,06,02,43,15.70
2016,06,06,02,44,15.70
2016,06,06,02,45,15.70
2016,06,06,02,46,15.70
2016,06,06,02,47,15.60
2016,06,06,02,48,15.60
2016,06,06,02,49,15.60
2016,06,06,02,50,15.60
2016,06,06,02,51,15.60
2016,06,06,02,52,15.60
2016,06,06,02,53,15.60
2016,06,06,02,54,15.50
2016,06,06,02,55,15.50
2016,06,06,02,56,15.50
2016,06,06,02,57,15.50
2016,06,06,02,58,15.50
2016,06,06,02,59,15.50
2016,06,06,03,00,15.40
2016,06,06,03,01,15.40
2016,06,06,03,02,15.40
2016,06,06,03,03,15.40
2016,06,06,03,04,15.40
2016,06,06,03,05,15.40
2016,06,06,03,06,15.30
2016,06,06,03,07,15.30
2016,06,06,03,08,15.30
2016,06,06,03,09,15.30
2016,06,06,03,10,15.20
2016,06,06,03,11,15.20
2016,06,06,03,12,15.20
2016,06,06,03,13,15.20
2016,06,06,03,14,15.20
2016,06,06,03,15,15.20
2016,06,06,03,16,15.20
2016,06,06,03,17,15.10
2016,06,06,03,18,15.20
2016,06,06,03,19,15.20
2016,06,06,03,20,15.20
2016,06,06,03,21,15.20
2016,06,06,03,22,15.20
2016,06,06,03,23,15.20
2016,06,06,03,24,15.20
2016,06,06,03,25,15.10
2016,06,06,03,26,15.10
2016,06,06,03,27,15.10
2016,06,06,03,28,15.10
2016,06,06,03,29,15.10
2016,06,06,03,30,15.10
2016,06,06,03,31,15.00
2016,06,06,03,32,15.00
2016,06,06,03,33,15.00
2016,06,06,03,34,15.00
2016,06,06,03,35,15.00
2016,06,06,03,36,15.00
2016,06,06,03,37,14.90
2016,06,06,03,38,14.90
2016,06,06,03,39,14.90
2016,06,06,03,40,14.90
2016,06,06,03,41,14.90
2016,06,06,03,42,14.90
2016,06,06,03,43,14.90
2016,06,06,03,44,14.90
2016,06,06,03,45,14.90
2016,06,06,03,46,14.80
2016,06,06,03,47,14.80
2016,06,06,03,48,14.80
2016,06,06,03,49,14.80
2016,06,06,03,50,14.80
2016,06,06,03,51,14.80
2016,06,06,03,52,14.80
2016,06,06,03,53,14.70
2016,06,06,03,54,14.70
2016,06,06,03,55,14.70
2016,06,06,03,56,14.70
2016,06,06,03,57,14.70
2016,06,06,03,58,14.70
2016,06,06,03,59,14.60
2016,06,06,04,00,14.60
2016,06,06,04,01,14.60
2016,06,06,04,02,14.60
2016,06,06,04,03,14.60
2016,06,06,04,04,14.60
2016,06,06,04,05,14.60
2016,06,06,04,06,14.50
2016,06,06,04,07,14.50
2016,06,06,04,08,14.50
2016,06,06,04,09,14.50
2016,06,06,04,10,14.40
2016,06,06,04,11,14.40
2016,06,06,04,12,14.40
2016,06,06,04,13,14.40
2016,06,06,04,14,14.40
2016,06,06,04,15,14.40
2016,06,06,04,16,14.30
2016,06,06,04,17,14.30
2016,06,06,04,18,14.30
2016,06,06,04,19,14.30
2016,06,06,04,20,14.30
2016,06,06,04,21,14.30
2016,06,06,04,22,14.30
2016,06,06,04,23,14.30
2016,06,06,04,24,14.30
2016,06,06,04,25,14.30
2016,06,06,04,26,14.30
2016,06,06,04,27,14.20
2016,06,06,04,28,14.20
2016,06,06,04,29,14.20
2016,06,06,04,30,14.20
2016,06,06,04,31,14.20
2016,06,06,04,32,14.20
2016,06,06,04,33,14.20
2016,06,06,04,34,14.20
2016,06,06,04,35,14.20
2016,06,06,04,36,14.20
2016,06,06,04,37,14.20
2016,06,06,04,38,14.20
2016,06,06,04,39,14.20
2016,06,06,04,40,14.10
2016,06,06,04,41,14.10
2016,06,06,04,42,14.10
2016,06,06,04,43,14.10
2016,06,06,04,44,14.10
2016,06,06,04,45,14.10
2016,06,06,04,46,14.10
2016,06,06,04,47,14.10
2016,06,06,04,48,14.10
2016,06,06,04,49,14.10
2016,06,06,04,50,14.10
2016,06,06,04,51,14.00
2016,06,06,04,52,14.00
2016,06,06,04,53,14.00
2016,06,06,04,54,14.00
2016,06,06,04,55,13.90
2016,06,06,04,56,13.90
2016,06,06,04,57,13.90
2016,06,06,04,58,13.90
2016,06,06,04,59,13.90
2016,06,06,05,00,13.80
2016,06,06,05,01,13.80
2016,06,06,05,02,13.80
2016,06,06,05,03,13.80
2016,06,06,05,04,13.80
2016,06,06,05,05,13.80
2016,06,06,05,06,13.80
2016,06,06,05,07,13.80
2016,06,06,05,08,13.80
2016,06,06,05,09,13.80
2016,06,06,05,10,13.80
2016,06,06,05,11,13.80
2016,06,06,05,12,13.80
2016,06,06,05,13,13.80
2016,06,06,05,14,13.80
2016,06,06,05,15,13.80
2016,06,06,05,16,13.80
2016,06,06,05,17,13.80
2016,06,06,05,18,13.80
2016,06,06,05,19,13.80
2016,06,06,05,20,13.80
2016,06,06,05,21,13.80
2016,06,06,05,22,13.80
2016,06,06,05,23,13.70
2016,06,06,05,24,13.70
2016,06,06,05,25,13.70
2016,06,06,05,26,13.70
2016,06,06,05,27,13.70
2016,06,06,05,28,13.70
2016,06,06,05,29,13.70
2016,06,06,05,30,13.70
2016,06,06,05,31,13.70
2016,06,06,05,32,13.70
2016,06,06,05,33,13.70
2016,06,06,05,34,13.70
2016,06,06,05,35,13.70
2016,06,06,05,36,13.70
2016,06,06,05,37,13.70
2016,06,06,05,38,13.70
2016,06,06,05,39,13.70
2016,06,06,05,40,13.70
2016,06,06,05,41,13.70
2016,06,06,05,42,13.70
2016,06,06,05,43,13.70
2016,06,06,05,44,13.70
2016,06,06,05,45,13.70
2016,06,06,05,46,13.70
2016,06,06,05,47,13.70
2016,06,06,05,48,13.70
2016,06,06,05,49,13.70
2016,06,06,05,50,13.70
2016,06,06,05,51,13.70
2016,06,06,05,52,13.70
2016,06,06,05,53,13.70
2016,06,06,05,54,13.70
2016,06,06,05,55,13.70
2016,06,06,05,56,13.70
2016,06,06,05,57,13.70
2016,06,06,05,58,13.70
2016,06,06,05,59,13.70
2016,06,06,06,00,13.70
2016,06,06,06,01,13.70
2016,06,06,06,02,13.70
2016,06,06,06,03,13.70
2016,06,06,06,04,13.70
2016,06,06,06,05,13.70
2016,06,06,06,06,13.70
2016,06,06,06,07,13.70
2016,06,06,06,08,13.70
2016,06,06,06,09,13.70
2016,06,06,06,10,13.70
2016,06,06,06,11,13.70
2016,06,06,06,12,13.70
2016,06,06,06,13,13.70
2016,06,06,06,14,13.70
2016,06,06,06,15,13.70
2016,06,06,06,16,13.80
2016,06,06,06,17,13.80
2016,06,06,06,18,13.80
2016,06,06,06,19,13.90
2016,06,06,06,20,13.90
2016,06,06,06,21,13.90
2016,06,06,06,22,14.00
2016,06,06,06,23,14.10
2016,06,06,06,24,14.10
2016,06,06,06,25,14.20
2016,06,06,06,26,14.20
2016,06,06,06,27,14.30
2016,06,06,06,28,14.30
2016,06,06,06,29,14.40
2016,06,06,06,30,14.40
2016,06,06,06,31,14.50
2016,06,06,06,32,14.50
2016,06,06,06,33,14.50
2016,06,06,06,34,14.60
2016,06,06,06,35,14.60
2016,06,06,06,36,14.60
2016,06,06,06,37,14.70
2016,06,06,06,38,14.70
2016,06,06,06,39,14.70
2016,06,06,06,40,14.80
2016,06,06,06,41,14.80
2016,06,06,06,42,14.80
2016,06,06,06,43,14.80
2016,06,06,06,44,14.80
2016,06,06,06,45,14.80
2016,06,06,06,46,14.90
2016,06,06,06,47,14.90
2016,06,06,06,48,14.90
2016,06,06,06,49,14.90
2016,06,06,06,50,14.90
2016,06,06,06,51,14.90
2016,06,06,06,52,15.00
2016,06,06,06,53,15.00
2016,06,06,06,54,15.10
2016,06,06,06,55,15.10
2016,06,06,06,56,15.10
2016,06,06,06,57,15.10
2016,06,06,06,58,15.20
2016,06,06,06,59,15.20
2016,06,06,07,00,15.20
2016,06,06,07,01,15.30
2016,06,06,07,02,15.30
2016,06,06,07,03,15.30
2016,06,06,07,04,15.40
2016,06,06,07,05,15.40
2016,06,06,07,06,15.40
2016,06,06,07,07,15.50
2016,06,06,07,08,15.50
2016,06,06,07,09,15.60
2016,06,06,07,10,15.70
2016,06,06,07,11,15.70
2016,06,06,07,12,15.70
2016,06,06,07,13,15.80
2016,06,06,07,14,15.80
2016,06,06,07,15,15.90
2016,06,06,07,16,15.90
2016,06,06,07,17,16.00
2016,06,06,07,18,16.10
2016,06,06,07,19,16.10
2016,06,06,07,20,16.20
2016,06,06,07,21,16.30
2016,06,06,07,22,16.40
2016,06,06,07,23,16.50
2016,06,06,07,24,16.60
2016,06,06,07,25,16.70
2016,06,06,07,26,16.80
2016,06,06,07,27,16.90
2016,06,06,07,28,17.00
2016,06,06,07,29,17.20
2016,06,06,07,30,17.20
2016,06,06,07,31,17.30
2016,06,06,07,32,17.50
2016,06,06,07,33,17.50
2016,06,06,07,34,17.70
2016,06,06,07,35,17.70
2016,06,06,07,36,17.80
2016,06,06,07,37,17.90
2016,06,06,07,38,18.00
2016,06,06,07,39,18.00
2016,06,06,07,40,18.10
2016,06,06,07,41,18.10
2016,06,06,07,42,18.00
2016,06,06,07,43,18.00
2016,06,06,07,44,17.90
2016,06,06,07,45,17.90
2016,06,06,07,46,17.90
2016,06,06,07,47,17.80
2016,06,06,07,48,17.90
2016,06,06,07,49,17.90
2016,06,06,07,50,17.90
2016,06,06,07,51,17.90
2016,06,06,07,52,17.90
2016,06,06,07,53,17.90
2016,06,06,07,54,17.90
2016,06,06,07,55,17.90
2016,06,06,07,56,17.90
2016,06,06,07,57,17.90
2016,06,06,07,58,17.90
2016,06,06,07,59,18.00
2016,06,06,08,00,18.00
2016,06,06,08,01,18.00
2016,06,06,08,02,18.00
2016,06,06,08,03,18.00
2016,06,06,08,04,18.00
2016,06,06,08,05,17.90
2016,06,06,08,06,18.00
2016,06,06,08,07,18.10
2016,06,06,08,08,18.10
2016,06,06,08,09,18.20
2016,06,06,08,10,18.20
2016,06,06,08,11,18.20
2016,06,06,08,12,18.30
2016,06,06,08,13,18.30
2016,06,06,08,14,18.40
2016,06,06,08,15,18.40
2016,06,06,08,16,18.40
2016,06,06,08,17,18.50
2016,06,06,08,18,18.50
2016,06,06,08,19,18.50
2016,06,06,08,20,18.50
2016,06,06,08,21,18.50
2016,06,06,08,22,18.60
2016,06,06,08,23,18.70
2016,06,06,08,24,18.80
2016,06,06,08,25,18.90
2016,06,06,08,26,18.90
2016,06,06,08,27,18.90
2016,06,06,08,28,18.90
2016,06,06,08,29,18.90
2016,06,06,08,30,18.90
2016,06,06,08,31,18.90
2016,06,06,08,32,18.90
2016,06,06,08,33,18.90
2016,06,06,08,34,18.90
2016,06,06,08,35,19.00
2016,06,06,08,36,19.00
2016,06,06,08,37,19.10
2016,06,06,08,38,19.20
2016,06,06,08,39,19.20
2016,06,06,08,40,19.30
2016,06,06,08,41,19.30
2016,06,06,08,42,19.40
2016,06,06,08,43,19.40
2016,06,06,08,44,19.50
2016,06,06,08,45,19.50
2016,06,06,08,46,19.60
2016,06,06,08,47,19.60
2016,06,06,08,48,19.60
2016,06,06,08,49,19.60
2016,06,06,08,50,19.60
2016,06,06,08,51,19.60
2016,06,06,08,52,19.60
2016,06,06,08,53,19.70
2016,06,06,08,54,19.70
2016,06,06,08,55,19.70
2016,06,06,08,56,19.80
2016,06,06,08,57,19.80
2016,06,06,08,58,19.80
2016,06,06,08,59,19.80
2016,06,06,09,00,19.80
2016,06,06,09,01,19.80
2016,06,06,09,02,19.90
2016,06,06,09,03,19.90
2016,06,06,09,04,19.90
2016,06,06,09,05,19.90
2016,06,06,09,06,19.90
2016,06,06,09,07,19.90
2016,06,06,09,08,19.90
2016,06,06,09,09,19.90
2016,06,06,09,10,19.90
2016,06,06,09,11,19.90
2016,06,06,09,12,19.90
2016,06,06,09,13,20.00
2016,06,06,09,14,20.00
2016,06,06,09,15,20.00
2016,06,06,09,16,20.10
2016,06,06,09,17,20.10
2016,06,06,09,18,20.10
2016,06,06,09,19,20.20
2016,06,06,09,20,20.30
2016,06,06,09,21,20.30
2016,06,06,09,22,20.40
2016,06,06,09,23,20.50
2016,06,06,09,24,20.50
2016,06,06,09,25,20.60
2016,06,06,09,26,20.60
2016,06,06,09,27,20.60
2016,06,06,09,28,20.70
2016,06,06,09,29,20.70
2016,06,06,09,30,20.80
2016,06,06,09,31,20.80
2016,06,06,09,32,20.90
2016,06,06,09,33,21.00
2016,06,06,09,34,21.10
2016,06,06,09,35,21.20
2016,06,06,09,36,21.30
2016,06,06,09,37,21.40
2016,06,06,09,38,21.50
2016,06,06,09,39,21.60
2016,06,06,09,40,21.60
2016,06,06,09,41,21.60
2016,06,06,09,42,21.60
2016,06,06,09,43,21.50
2016,06,06,09,44,21.50
2016,06,06,09,45,21.50
2016,06,06,09,46,21.50
2016,06,06,09,47,21.50
2016,06,06,09,48,21.50
2016,06,06,09,49,21.50
2016,06,06,09,50,21.60
2016,06,06,09,51,21.60
2016,06,06,09,52,21.70
2016,06,06,09,53,21.70
2016,06,06,09,54,21.70
2016,06,06,09,55,21.80
2016,06,06,09,56,21.80
2016,06,06,09,57,21.90
2016,06,06,09,58,22.00
2016,06,06,09,59,22.00
2016,06,06,10,00,22.10
2016,06,06,10,01,22.20
2016,06,06,10,02,22.30
2016,06,06,10,03,22.40
2016,06,06,10,04,22.50
2016,06,06,10,05,22.60
2016,06,06,10,06,22.70
2016,06,06,10,07,22.70
2016,06,06,10,08,22.60
2016,06,06,10,09,22.60
2016,06,06,10,10,22.60
2016,06,06,10,11,22.60
2016,06,06,10,12,22.60
2016,06,06,10,13,22.60
2016,06,06,10,14,22.60
2016,06,06,10,15,22.60
2016,06,06,10,16,22.60
2016,06,06,10,17,22.70
2016,06,06,10,18,22.70
2016,06,06,10,19,22.80
2016,06,06,10,20,22.80
2016,06,06,10,21,22.90
2016,06,06,10,22,22.90
2016,06,06,10,23,22.90
2016,06,06,10,24,22.90
2016,06,06,10,25,22.80
2016,06,06,10,26,22.80
2016,06,06,10,27,22.80
2016,06,06,10,28,22.80
2016,06,06,10,29,22.80
2016,06,06,10,30,22.80
2016,06,06,10,31,22.90
2016,06,06,10,32,22.90
2016,06,06,10,33,23.00
2016,06,06,10,34,23.10
2016,06,06,10,35,23.00
2016,06,06,10,36,23.00
2016,06,06,10,37,23.10
2016,06,06,10,38,23.20
2016,06,06,10,39,23.30
2016,06,06,10,40,23.40
2016,06,06,10,41,23.40
2016,06,06,10,42,23.50
2016,06,06,10,43,23.60
2016,06,06,10,44,23.60
2016,06,06,10,45,23.70
2016,06,06,10,46,23.70
2016,06,06,10,47,23.70
2016,06,06,10,48,23.70
2016,06,06,10,49,23.70
2016,06,06,10,50,23.70
2016,06,06,10,51,23.70
2016,06,06,10,52,23.70
2016,06,06,10,53,23.80
2016,06,06,10,54,23.80
2016,06,06,10,55,23.90
2016,06,06,10,56,23.90
2016,06,06,10,57,24.10
2016,06,06,10,58,24.20
2016,06,06,10,59,24.20
2016,06,06,11,00,24.20
2016,06,06,11,01,24.30
2016,06,06,11,02,24.30
2016,06,06,11,03,24.30
2016,06,06,11,04,24.30
2016,06,06,11,05,24.30
2016,06,06,11,06,24.30
2016,06,06,11,07,24.20
2016,06,06,11,08,24.20
2016,06,06,11,09,24.10
2016,06,06,11,10,24.10
2016,06,06,11,11,24.10
2016,06,06,11,12,24.10
2016,06,06,11,13,24.10
2016,06,06,11,14,24.00
2016,06,06,11,15,24.00
2016,06,06,11,16,24.00
2016,06,06,11,17,24.00
2016,06,06,11,18,24.10
2016,06,06,11,19,24.20
2016,06,06,11,20,24.20
2016,06,06,11,21,24.20
2016,06,06,11,22,24.20
2016,06,06,11,23,24.20
2016,06,06,11,24,24.20
2016,06,06,11,25,24.20
2016,06,06,11,26,24.20
2016,06,06,11,27,24.20
2016,06,06,11,28,24.20
2016,06,06,11,29,24.30
2016,06,06,11,30,24.40
2016,06,06,11,31,24.40
2016,06,06,11,32,24.50
2016,06,06,11,33,24.60
2016,06,06,11,34,24.60
2016,06,06,11,35,24.70
2016,06,06,11,36,24.80
2016,06,06,11,37,24.90
2016,06,06,11,38,25.00
2016,06,06,11,39,25.00
2016,06,06,11,40,25.10
2016,06,06,11,41,25.20
2016,06,06,11,42,25.20
2016,06,06,11,43,25.20
2016,06,06,11,44,25.30
2016,06,06,11,45,25.30
2016,06,06,11,46,25.40
2016,06,06,11,47,25.50
2016,06,06,11,48,25.50
2016,06,06,11,49,25.60
2016,06,06,11,50,25.70
2016,06,06,11,51,25.80
2016,06,06,11,52,25.80
2016,06,06,11,53,25.90
2016,06,06,11,54,26.00
2016,06,06,11,55,26.10
2016,06,06,11,56,26.20
2016,06,06,11,57,26.30
2016,06,06,11,58,26.40
2016,06,06,11,59,26.50
2016,06,06,12,00,26.60
2016,06,06,12,01,26.70
2016,06,06,12,02,26.70
2016,06,06,12,03,26.80
2016,06,06,12,04,26.80
2016,06,06,12,05,26.70
2016,06,06,12,06,26.60
2016,06,06,12,07,26.60
2016,06,06,12,08,26.50
2016,06,06,12,09,26.50
2016,06,06,12,10,26.50
2016,06,06,12,11,26.50
2016,06,06,12,12,26.50
2016,06,06,12,13,26.60
2016,06,06,12,14,26.50
2016,06,06,12,15,26.50
2016,06,06,12,16,26.50
2016,06,06,12,17,26.60
2016,06,06,12,18,26.60
2016,06,06,12,19,26.70
2016,06,06,12,20,26.70
2016,06,06,12,21,26.70
2016,06,06,12,22,26.80
2016,06,06,12,23,26.80
2016,06,06,12,24,26.80
2016,06,06,12,25,26.90
2016,06,06,12,26,26.90
2016,06,06,12,27,27.00
2016,06,06,12,28,27.10
2016,06,06,12,29,27.10
2016,06,06,12,30,27.10
2016,06,06,12,31,27.20
2016,06,06,12,32,27.30
2016,06,06,12,33,27.40
2016,06,06,12,34,27.50
2016,06,06,12,35,27.60
2016,06,06,12,36,27.60
2016,06,06,12,37,27.60
2016,06,06,12,38,27.60
2016,06,06,12,39,27.60
2016,06,06,12,40,27.50
2016,06,06,12,41,27.50
2016,06,06,12,42,27.40
2016,06,06,12,43,27.50
2016,06,06,12,44,27.60
2016,06,06,12,45,27.70
2016,06,06,12,46,27.80
2016,06,06,12,47,27.90
2016,06,06,12,48,27.90
2016,06,06,12,49,28.00
2016,06,06,12,50,28.00
2016,06,06,12,51,28.00
2016,06,06,12,52,28.10
2016,06,06,12,53,28.00
2016,06,06,12,54,28.00
2016,06,06,12,55,28.10
2016,06,06,12,56,28.10
2016,06,06,12,57,28.10
2016,06,06,12,58,28.10
2016,06,06,12,59,28.20
2016,06,06,13,00,28.20
2016,06,06,13,01,28.20
2016,06,06,13,02,28.20
2016,06,06,13,03,28.20
2016,06,06,13,04,28.30
2016,06,06,13,05,28.40
2016,06,06,13,06,28.50
2016,06,06,13,07,28.60
2016,06,06,13,08,28.70
2016,06,06,13,09,28.70
2016,06,06,13,10,28.60
2016,06,06,13,11,28.60
2016,06,06,13,12,28.50
2016,06,06,13,13,28.50
2016,06,06,13,14,28.50
2016,06,06,13,15,28.50
2016,06,06,13,16,28.60
2016,06,06,13,17,28.60
2016,06,06,13,18,28.70
2016,06,06,13,19,28.90
2016,06,06,13,20,29.00
2016,06,06,13,21,29.20
2016,06,06,13,22,29.20
2016,06,06,13,23,29.10
2016,06,06,13,24,29.10
2016,06,06,13,25,29.10
2016,06,06,13,26,29.10
2016,06,06,13,27,29.20
2016,06,06,13,28,29.30
2016,06,06,13,29,29.40
2016,06,06,13,30,29.40
2016,06,06,13,31,29.40
2016,06,06,13,32,29.50
2016,06,06,13,33,29.50
2016,06,06,13,34,29.60
2016,06,06,13,35,29.80
2016,06,06,13,36,29.80
2016,06,06,13,37,29.80
2016,06,06,13,38,29.80
2016,06,06,13,39,29.80
2016,06,06,13,40,29.70
2016,06,06,13,41,29.70
2016,06,06,13,42,29.70
2016,06,06,13,43,29.70
2016,06,06,13,44,29.80
2016,06,06,13,45,29.70
2016,06,06,13,46,29.70
2016,06,06,13,47,29.70
2016,06,06,13,48,29.70
2016,06,06,13,49,29.70
2016,06,06,13,50,29.70
2016,06,06,13,51,29.70
2016,06,06,13,52,29.70
2016,06,06,13,53,29.60
2016,06,06,13,54,29.60
2016,06,06,13,55,29.60
2016,06,06,13,56,29.50
2016,06,06,13,57,29.40
2016,06,06,13,58,29.50
2016,06,06,13,59,29.50
2016,06,06,14,00,29.60
2016,06,06,14,01,29.60
2016,06,06,14,02,29.70
2016,06,06,14,03,29.80
2016,06,06,14,04,29.80
2016,06,06,14,05,29.90
2016,06,06,14,06,29.90
2016,06,06,14,07,30.00
2016,06,06,14,08,30.00
2016,06,06,14,09,29.90
2016,06,06,14,10,29.90
2016,06,06,14,11,29.80
2016,06,06,14,12,29.80
2016,06,06,14,13,29.90
2016,06,06,14,14,30.00
2016,06,06,14,15,30.00
2016,06,06,14,16,29.90
2016,06,06,14,17,29.90
2016,06,06,14,18,29.90
2016,06,06,14,19,29.90
2016,06,06,14,20,29.80
2016,06,06,14,21,29.80
2016,06,06,14,22,29.80
2016,06,06,14,23,29.80
2016,06,06,14,24,29.80
2016,06,06,14,25,29.90
2016,06,06,14,26,29.90
2016,06,06,14,27,29.80
2016,06,06,14,28,29.80
2016,06,06,14,29,29.70
2016,06,06,14,30,29.60
2016,06,06,14,31,29.60
2016,06,06,14,32,29.60
2016,06,06,14,33,29.70
2016,06,06,14,34,29.70
2016,06,06,14,35,29.70
2016,06,06,14,36,29.60
2016,06,06,14,37,29.60
2016,06,06,14,38,29.60
2016,06,06,14,39,29.50
2016,06,06,14,40,29.50
2016,06,06,14,41,29.50
2016,06,06,14,42,29.50
2016,06,06,14,43,29.60
2016,06,06,14,44,29.60
2016,06,06,14,45,29.60
2016,06,06,14,46,29.60
2016,06,06,14,47,29.50
2016,06,06,14,48,29.40
2016,06,06,14,49,29.40
2016,06,06,14,50,29.30
2016,06,06,14,51,29.30
2016,06,06,14,52,29.40
2016,06,06,14,53,29.40
2016,06,06,14,54,29.40
2016,06,06,14,55,29.40
2016,06,06,14,56,29.40
2016,06,06,14,57,29.50
2016,06,06,14,58,29.50
2016,06,06,14,59,29.60
2016,06,06,15,00,29.70
2016,06,06,15,01,29.80
2016,06,06,15,02,29.90
2016,06,06,15,03,29.90
2016,06,06,15,04,29.80
2016,06,06,15,05,29.70
2016,06,06,15,06,29.50
2016,06,06,15,07,29.40
2016,06,06,15,08,29.40
2016,06,06,15,09,29.30
2016,06,06,15,10,29.30
2016,06,06,15,11,29.20
2016,06,06,15,12,29.20
2016,06,06,15,13,29.20
2016,06,06,15,14,29.30
2016,06,06,15,15,29.30
2016,06,06,15,16,29.30
2016,06,06,15,17,29.30
2016,06,06,15,18,29.40
2016,06,06,15,19,29.50
2016,06,06,15,20,29.60
2016,06,06,15,21,29.70
2016,06,06,15,22,29.80
2016,06,06,15,23,29.80
2016,06,06,15,24,29.80
2016,06,06,15,25,29.80
2016,06,06,15,26,29.90
2016,06,06,15,27,29.90
2016,06,06,15,28,29.90
2016,06,06,15,29,29.90
2016,06,06,15,30,29.80
2016,06,06,15,31,29.70
2016,06,06,15,32,29.70
2016,06,06,15,33,29.70
2016,06,06,15,34,29.60
2016,06,06,15,35,29.50
2016,06,06,15,36,29.50
2016,06,06,15,37,29.50
2016,06,06,15,38,29.60
2016,06,06,15,39,29.60
2016,06,06,15,40,29.70
2016,06,06,15,41,29.70
2016,06,06,15,42,29.80
2016,06,06,15,43,29.90
2016,06,06,15,44,29.90
2016,06,06,15,45,29.90
2016,06,06,15,46,29.80
2016,06,06,15,47,29.80
2016,06,06,15,48,29.80
2016,06,06,15,49,29.80
2016,06,06,15,50,29.80
2016,06,06,15,51,29.80
2016,06,06,15,52,29.80
2016,06,06,15,53,29.80
2016,06,06,15,54,29.80
2016,06,06,15,55,29.90
2016,06,06,15,56,30.00
2016,06,06,15,57,30.10
2016,06,06,15,58,30.20
2016,06,06,15,59,30.20
2016,06,06,16,00,30.20
2016,06,06,16,01,30.10
2016,06,06,16,02,30.00
2016,06,06,16,03,29.90
2016,06,06,16,04,29.80
2016,06,06,16,05,29.60
2016,06,06,16,06,29.40
2016,06,06,16,07,29.20
2016,06,06,16,08,29.00
2016,06,06,16,09,28.70
2016,06,06,16,10,28.60
2016,06,06,16,11,28.40
2016,06,06,16,12,28.40
2016,06,06,16,13,28.40
2016,06,06,16,14,28.30
2016,06,06,16,15,28.30
2016,06,06,16,16,28.20
2016,06,06,16,17,28.10
2016,06,06,16,18,28.00
2016,06,06,16,19,27.90
2016,06,06,16,20,27.90
2016,06,06,16,21,27.90
2016,06,06,16,22,27.90
2016,06,06,16,23,27.90
2016,06,06,16,24,27.90
2016,06,06,16,25,27.90
2016,06,06,16,26,27.90
2016,06,06,16,27,28.00
2016,06,06,16,28,28.00
2016,06,06,16,29,28.10
2016,06,06,16,30,28.20
2016,06,06,16,31,28.30
2016,06,06,16,32,28.40
2016,06,06,16,33,28.50
2016,06,06,16,34,28.50
2016,06,06,16,35,28.50
2016,06,06,16,36,28.50
2016,06,06,16,37,28.50
2016,06,06,16,38,28.50
2016,06,06,16,39,28.50
2016,06,06,16,40,28.40
2016,06,06,16,41,28.40
2016,06,06,16,42,28.40
2016,06,06,16,43,28.40
2016,06,06,16,44,28.30
2016,06,06,16,45,28.10
2016,06,06,16,46,28.00
2016,06,06,16,47,27.90
2016,06,06,16,48,27.90
2016,06,06,16,49,27.90
2016,06,06,16,50,28.00
2016,06,06,16,51,28.00
2016,06,06,16,52,28.00
2016,06,06,16,53,28.00
2016,06,06,16,54,28.00
2016,06,06,16,55,27.90
2016,06,06,16,56,27.80
2016,06,06,16,57,27.80
2016,06,06,16,58,27.80
2016,06,06,16,59,27.80
2016,06,06,17,00,27.70
2016,06,06,17,01,27.60
2016,06,06,17,02,27.60
2016,06,06,17,03,27.50
2016,06,06,17,04,27.40
2016,06,06,17,05,27.40
2016,06,06,17,06,27.30
2016,06,06,17,07,27.40
2016,06,06,17,08,27.40
2016,06,06,17,09,27.40
2016,06,06,17,10,27.50
2016,06,06,17,11,27.50
2016,06,06,17,12,27.50
2016,06,06,17,13,27.50
2016,06,06,17,14,27.50
2016,06,06,17,15,27.50
2016,06,06,17,16,27.50
2016,06,06,17,17,27.40
2016,06,06,17,18,27.30
2016,06,06,17,19,27.30